Flag for U.S.A. Weather past 2 weeks in Santa Clarita, California, U.S.A.

Now
68 °F

Clear.


Feels Like: 68 °F
Forecast: 61 / 83 °F
Wind: No wind

Location: Van Nuys Airport

Current Time: Sep 19, 2014 at 1:09:04 AM

Latest Report: Sep 18, 2014 at 11:51 PM


Visibility: 10 mi

Pressure: 29.83 "Hg

Humidity: 73%

Dew point: 59 °F

Location of Santa ClaritaLocation

Historic Weather in Santa Clarita — Graph

°F

Santa Clarita temperature yesterday

Maximum temperature yesterday: 84 °F (at 12:51 PM)
Minimum temperature yesterday: 68 °F (at 5:51 AM)
Average temperature yesterday: 75 °F

Past Weeks' High & Low Weather Summary

 TemperatureHumidityPressure
High106 °F (Sep 14, 12:51 PM)90% (Sep 5, 4:51 AM)29.92 "Hg (Sep 5, 4:51 AM)
Low62 °F (Sep 10, 6:51 AM)11% (Sep 14, 12:51 PM)29.64 "Hg (Sep 16, 4:51 PM)
Average82 °F41%29.78 "Hg
* Reported Sep 3 11:51 PM — Sep 18 11:51 PM, Santa Clarita, Weather by CustomWeather, © 2014

Note: Actual official high and low records may vary slightly from our data, if they occured in-between our weather recording intervals... More about our weather records

Advertising

Santa Clarita weather history for previous 24 hours

 ConditionsComfort  
Time TempWeatherWind HumidityBarometerVisibility
11:51 PM
Sep 18
68 °FClear.No wind73%29.83 "Hg10 mi
10:51 PM69 °FClear.5 mph70%29.84 "Hg10 mi
9:51 PM71 °FClear.3 mph63%29.83 "Hg10 mi
8:51 PM72 °FClear.3 mph61%29.83 "Hg10 mi
7:51 PM73 °FSunny.7 mph62%29.81 "Hg10 mi
6:51 PM77 °FSunny.7 mph50%29.79 "Hg10 mi
5:51 PM80 °FSunny.7 mph54%29.77 "Hg10 mi
4:51 PM83 °FSunny.12 mph48%29.77 "Hg10 mi
3:51 PM83 °FSunny.10 mph46%29.77 "Hg10 mi
2:51 PM84 °FSunny.13 mph43%29.78 "Hg10 mi
1:51 PM82 °FSunny.13 mph44%29.80 "Hg10 mi
12:51 PM84 °FSunny.9 mph41%29.82 "Hg10 mi
11:51 AM82 °FSunny.5 mph44%29.84 "Hg10 mi
10:51 AM79 °FSunny.9 mph48%29.85 "Hg10 mi
9:51 AM76 °FSunny.8 mph54%29.86 "Hg10 mi
8:51 AM73 °FSunny.No wind57%29.85 "Hg10 mi
7:51 AM70 °FSunny.3 mph61%29.83 "Hg10 mi
6:51 AM69 °FClear.No wind63%29.81 "Hg10 mi
5:51 AM68 °FClear.No wind65%29.79 "Hg10 mi
4:51 AM70 °FClear.5 mph61%29.78 "Hg10 mi
3:51 AM71 °FClear.3 mph59%29.77 "Hg10 mi
2:51 AM72 °FClear.No wind55%29.77 "Hg10 mi
1:51 AM73 °FClear.No wind51%29.77 "Hg10 mi
Weather by CustomWeather, © 2014

See weather overviewHow to use our weather pages